Location: Chevoux
(46.3801°N, 4.9476°E)
Time: 20:19:38
(UTC+00:00)

ISS - Pass Details

Date: 28 April 2021
Orbit: 418 x 421 km, 51.6° (Epoch: 07 May)

Event Time Altitude Azimuth Distance (km) Brightness Sun altitude
Exits shadow 03:48:28 - 228° (SW) 1,544 -1.5 -7.4°
Reaches altitude 10° 03:48:35 10° 227° (SW) 1,498 -1.6 -7.4°
Maximum altitude 03:51:53 58° 148° (SSE) 493 -3.4 -6.9°
Drops below altitude 10° 03:55:13 10° 68° (ENE) 1,508 0.9 -6.4°
Sets 03:57:21 0° 65° (ENE) 2,375 2.9 -6.1°
